Location: Brno
(49.2000°N, 16.6330°E)
Time: 01:09:48
(UTC+02:00)

Transit 4A - Pass Details

Date: 31 July 2021
Orbit: 870 x 974 km, 66.8° (Epoch: 26 September)

Event Time Altitude Azimuth Distance (km) Brightness Sun altitude
Exits shadow 03:56:34 - 275° (W) 3,517 10.6 -12.0°
Rises 03:56:43 0° 275° (W) 3,473 10.5 -12.0°
Reaches altitude 10° 04:00:01 10° 294° (WNW) 2,528 10.0 -11.6°
Maximum altitude 04:04:01 19° 337° (NNW) 1,979 9.9 -11.2°
Drops below altitude 10° 04:08:02 10° 21° (NNE) 2,529 11.4 -10.7°
Sets 04:11:21 0° 40° (NE) 3,475 13.1 -10.3°
